Date_and_time,latitude,longitude,wind_speed,RelWindDirFrom,WindDirFrom,air_pressure,air_temperature,relative_humidity,Temp,platform_speed_wrt_ground,air_pressure_at_mean_sea_level,platform_orientation
2019-01-27 23:40,50.6304533333333,-96.98077,14.4,17.5,99,981.57,-19.9,77,0.37,0.0,1011.51,90.0
2019-01-27 23:50,50.6304516666667,-96.98077,13.5,16.6,97,981.70,-19.7,77,0.37,0.0,1011.63,90.0
2019-01-28 00:00,50.6304483333333,-96.9807633333333,13.4,17.1,97,981.77,-19.6,77,0.37,0.0,1011.69,360.0
2019-01-28 00:10,50.63045,-96.98079,9.8,13.0,94,981.89,-19.6,78,0.37,0.0,1011.82,360.0
2019-01-28 00:20,50.6304483333333,-96.9807783333333,10.0,12.9,89,982.19,-19.6,78,0.37,0.0,1012.11,360.0
2019-01-28 00:30,50.6304466666667,-96.9807466666667,9.6,12.9,87,982.43,-19.7,78,0.37,0.0,1012.37,360.0
2019-01-28 00:40,50.6304516666667,-96.98075,10.5,13.1,85,982.54,-19.8,77,0.39,0.0,1012.48,360.0
2019-01-28 00:50,50.6304516666667,-96.9807566666667,11.5,14.2,77,982.85,-20.1,77,0.38,0.0,1012.82,360.0
2019-01-28 01:00,50.6304533333333,-96.9807616666667,10.7,12.6,81,983.03,-20.2,77,0.38,0.0,1013.00,90.0
2019-01-28 01:10,50.6304416666667,-96.9807616666667,10.8,13.7,80,983.25,-20.3,78,0.38,0.0,1013.23,90.0
2019-01-28 01:20,50.6304516666667,-96.9807666666667,9.8,12.0,78,983.46,-20.5,78,0.38,0.0,1013.45,90.0
2019-01-28 01:30,50.6304533333333,-96.9807666666667,8.2,9.8,84,983.64,-20.5,77,0.38,0.0,1013.63,90.0
2019-01-28 01:40,50.630455,-96.980765,8.9,10.2,76,983.85,-20.6,77,0.38,0.0,1013.84,90.0
2019-01-28 01:50,50.630455,-96.980765,9.1,10.6,76,984.08,-20.7,77,0.36,0.0,1014.07,90.0
2019-01-28 02:00,50.6304533333333,-96.980765,7.1,8.6,79,984.36,-20.7,77,0.35,0.0,1014.36,0.0
2019-01-28 02:10,50.6304533333333,-96.980765,6.6,8.1,79,984.62,-20.6,77,0.36,0.0,1014.62,0.0
2019-01-28 02:20,50.6304516666667,-96.9807666666667,6.7,8.5,74,984.98,-20.6,77,0.34,0.0,1015.01,0.0
2019-01-28 02:30,50.630445,-96.9808083333333,6.8,8.6,78,985.10,-20.5,76,0.33,0.0,1015.13,0.0
2019-01-28 02:40,50.6304483333333,-96.9807783333333,6.2,7.9,83,985.22,-20.5,75,0.33,0.0,1015.27,0.0
2019-01-28 02:50,50.6304533333333,-96.9807816666667,6.6,8.6,89,985.31,-20.4,74,0.34,0.0,1015.36,0.0
2019-01-28 03:00,50.6304533333333,-96.9807733333333,5.2,6.7,88,985.60,-20.3,73,0.36,0.0,1015.66,311.7
2019-01-28 03:10,50.6304533333333,-96.9807716666667,5.2,7.1,84,985.71,-20.3,73,0.37,0.0,1015.79,311.7
2019-01-28 03:20,50.630455,-96.98077,5.8,7.6,85,985.80,-20.3,72,0.38,0.0,1015.88,311.7
2019-01-28 03:30,50.630455,-96.98077,6.3,8.8,78,985.98,-20.4,72,0.37,0.0,1016.07,311.7
2019-01-28 03:40,50.630455,-96.98077,6.6,8.1,76,986.17,-20.4,71,0.37,0.0,1016.28,311.7
2019-01-28 03:50,50.6304566666667,-96.98077,6.3,7.8,77,986.30,-20.4,71,0.37,0.0,1016.41,311.7
2019-01-28 04:00,50.63046,-96.9807583333333,5.6,7.0,74,986.46,-20.4,71,0.38,0.0,1016.58,360.0
2019-01-28 04:10,50.63047,-96.9807416666667,5.6,7.3,62,986.64,-20.5,72,0.36,0.0,1016.76,360.0
2019-01-28 04:20,50.6304383333333,-96.9807466666667,5.4,6.7,58,986.70,-20.6,73,0.33,0.0,1016.83,360.0
2019-01-28 04:30,50.630445,-96.9807516666667,4.9,6.3,77,986.63,-20.5,74,0.32,0.0,1016.75,360.0
2019-01-28 04:40,50.6304633333333,-96.9807466666667,5.0,6.1,92,986.56,-20.4,74,0.31,0.0,1016.66,360.0
2019-01-28 04:50,50.6304566666667,-96.9807566666667,6.0,7.2,97,986.59,-20.4,74,0.30,0.0,1016.69,360.0
2019-01-28 05:00,50.6304583333333,-96.9807616666667,5.5,7.2,96,986.70,-20.4,75,0.30,0.0,1016.80,12.6
2019-01-28 05:10,50.6304566666667,-96.9807616666667,5.6,7.4,89,986.85,-20.4,75,0.29,0.0,1016.96,12.6
2019-01-28 05:20,50.6304583333333,-96.9807633333333,4.9,6.5,87,987.04,-20.4,74,0.29,0.0,1017.16,12.6
2019-01-28 05:30,50.6304733333333,-96.980785,4.5,5.9,89,987.20,-20.4,74,0.28,0.0,1017.32,12.6
2019-01-28 05:40,50.63047,-96.9807883333333,4.6,6.0,93,987.41,-20.4,74,0.29,0.0,1017.54,12.6
2019-01-28 05:50,50.6304716666667,-96.9807716666667,5.2,6.7,95,987.45,-20.4,74,0.30,0.0,1017.58,12.6
2019-01-28 06:00,50.6304683333333,-96.9807666666667,5.7,6.9,105,987.49,-20.5,74,0.30,0.0,1017.63,360.0
2019-01-28 06:10,50.6304733333333,-96.9807633333333,5.5,6.7,104,987.62,-20.5,74,0.32,0.0,1017.78,360.0
2019-01-28 06:20,50.6304716666667,-96.9807633333333,5.3,6.4,112,987.71,-20.5,74,0.35,0.0,1017.87,360.0
2019-01-28 06:30,50.63044,-96.9807633333333,5.1,6.1,128,987.77,-20.8,74,0.37,0.0,1017.93,360.0
2019-01-28 06:40,50.6304616666667,-96.9807633333333,5.2,6.4,130,987.88,-20.8,74,0.37,0.0,1018.05,360.0
2019-01-28 06:50,50.6304633333333,-96.9807666666667,4.7,5.9,141,987.96,-21.1,74,0.39,0.0,1018.15,360.0
2019-01-28 07:00,50.6304366666667,-96.9807916666667,5.1,6.4,159,988.10,-21.2,73,0.40,0.0,1018.30,223.8
2019-01-28 07:10,50.6304633333333,-96.9807783333333,4.7,5.7,171,988.26,-21.2,73,0.41,0.0,1018.47,223.8
2019-01-28 07:20,50.6304666666667,-96.9807733333333,5.0,6.0,174,988.28,-21.1,73,0.39,0.0,1018.48,223.8
2019-01-28 07:30,50.6304433333333,-96.9807583333333,5.1,6.2,175,988.30,-21.1,74,0.37,0.0,1018.50,223.8
2019-01-28 07:40,50.6304766666667,-96.9807716666667,4.0,5.4,202,988.36,-21.0,74,0.38,0.0,1018.55,223.8
2019-01-28 07:50,50.6304516666667,-96.9807716666667,3.7,4.8,208,988.43,-21.0,74,0.37,0.0,1018.63,223.8
2019-01-28 08:00,50.6304566666667,-96.980775,3.5,4.6,200,988.43,-21.0,75,0.37,0.0,1018.63,234.7
2019-01-28 08:10,50.630485,-96.980785,3.2,4.4,198,988.39,-21.0,77,0.39,0.0,1018.60,234.7
2019-01-28 08:20,50.6304766666667,-96.9807733333333,3.1,3.9,210,988.56,-21.0,77,0.40,0.0,1018.79,234.7
2019-01-28 08:30,50.6304583333333,-96.9807583333333,3.2,3.8,202,988.62,-21.0,78,0.40,0.0,1018.84,234.7
2019-01-28 08:40,50.6304616666667,-96.980765,3.4,4.3,215,988.62,-21.0,78,0.41,0.0,1018.87,234.7
2019-01-28 08:50,50.6304633333333,-96.9807666666667,3.0,4.1,209,988.65,-21.0,79,0.41,0.0,1018.90,234.7
2019-01-28 09:00,50.6304633333333,-96.9807666666667,2.8,3.5,203,988.66,-21.0,79,0.42,0.0,1018.91,142.0
2019-01-28 09:10,50.6304633333333,-96.9807666666667,3.0,3.9,205,988.65,-20.9,79,0.43,0.0,1018.89,142.0
2019-01-28 09:20,50.63046,-96.9807616666667,3.3,4.5,208,988.72,-20.9,79,0.43,0.0,1018.97,142.0
2019-01-28 09:30,50.63046,-96.9807583333333,3.2,4.5,211,988.74,-20.9,79,0.41,0.0,1018.98,142.0
2019-01-28 09:40,50.6304516666667,-96.9807666666667,3.7,4.6,214,988.76,-20.9,79,0.38,0.0,1019.00,142.0
2019-01-28 09:50,50.6304566666667,-96.9807566666667,4.1,5.2,214,988.86,-20.9,79,0.36,0.0,1019.10,142.0
2019-01-28 10:00,50.6304566666667,-96.98076,4.0,5.5,219,988.87,-20.9,79,0.34,0.0,1019.11,54.2
2019-01-28 10:10,50.630455,-96.98076,4.1,4.9,215,988.86,-20.9,80,0.35,0.0,1019.09,54.2
2019-01-28 10:20,50.6304533333333,-96.9807616666667,4.3,5.3,214,988.86,-20.8,80,0.38,0.0,1019.10,54.2
2019-01-28 10:30,50.6304533333333,-96.980765,4.3,5.6,211,988.88,-20.8,80,0.37,0.0,1019.12,54.2
2019-01-28 10:40,50.630455,-96.9807666666667,4.6,5.9,214,988.89,-20.7,80,0.36,0.0,1019.12,54.2
2019-01-28 10:50,50.630455,-96.980785,4.5,5.9,215,988.94,-20.7,80,0.35,0.0,1019.17,54.2
2019-01-28 11:00,50.63046,-96.9807616666667,4.5,6.2,226,989.00,-20.5,80,0.34,0.0,1019.21,54.7
2019-01-28 11:10,50.6304616666667,-96.9807683333333,4.9,7.0,235,989.12,-20.4,80,0.34,0.0,1019.33,54.7
2019-01-28 11:20,50.63046,-96.9807716666667,5.2,7.6,239,989.06,-20.3,80,0.33,0.0,1019.26,54.7
2019-01-28 11:30,50.630475,-96.980795,5.0,7.2,244,989.07,-20.1,80,0.33,0.0,1019.27,54.7
2019-01-28 11:40,50.6304616666667,-96.9807783333333,5.0,7.0,246,989.13,-20.1,79,0.33,0.0,1019.32,54.7
2019-01-28 11:50,50.63046,-96.9807766666667,4.8,7.6,248,989.16,-20.0,79,0.32,0.0,1019.35,54.7
2019-01-28 12:00,50.6304583333333,-96.980775,4.6,7.4,256,989.11,-20.0,79,0.31,0.0,1019.29,192.6
2019-01-28 12:10,50.630445,-96.980785,4.8,7.2,261,989.14,-19.9,79,0.31,0.0,1019.32,192.6
2019-01-28 12:20,50.6304483333333,-96.98076,5.5,8.6,275,989.17,-19.8,79,0.31,0.0,1019.34,192.6
2019-01-28 12:30,50.630475,-96.980745,6.3,10.0,285,989.28,-19.6,78,0.31,0.0,1019.43,192.6
2019-01-28 12:40,50.6304633333333,-96.980755,5.6,8.8,287,989.41,-19.5,78,0.31,0.0,1019.56,192.6
2019-01-28 12:50,50.63046,-96.98078,6.4,9.2,287,989.44,-19.4,78,0.31,0.0,1019.58,192.6
2019-01-28 13:00,50.63046,-96.9807683333333,9.3,15.0,301,989.36,-19.3,76,0.31,0.0,1019.48,347.4
2019-01-28 13:10,50.63046,-96.9807683333333,9.8,14.4,309,989.44,-19.3,74,0.31,0.0,1019.55,347.4
2019-01-28 13:20,50.6304616666667,-96.9807666666667,9.2,15.9,306,989.53,-19.3,74,0.31,0.0,1019.64,347.4
2019-01-28 13:30,50.6304616666667,-96.980765,9.3,14.1,306,989.57,-19.3,74,0.31,0.0,1019.68,347.4
2019-01-28 13:40,50.6304483333333,-96.980765,10.4,16.3,311,989.59,-19.3,75,0.31,0.0,1019.70,347.4
2019-01-28 13:50,50.6304733333333,-96.980765,12.1,18.4,308,989.59,-19.4,75,0.31,0.0,1019.70,347.4
2019-01-28 14:00,50.6304633333333,-96.9807633333333,9.8,16.2,307,989.84,-19.4,75,0.32,0.0,1019.95,347.4
2019-01-28 14:10,50.6304616666667,-96.9807616666667,11.4,21.7,303,989.91,-19.5,75,0.34,0.0,1020.02,347.4
2019-01-28 14:20,50.6304516666667,-96.9807716666667,13.1,18.9,306,989.97,-19.6,71,0.34,0.0,1020.08,347.4
2019-01-28 14:30,50.6304566666667,-96.9807683333333,12.1,18.1,310,990.14,-19.8,69,0.37,0.0,1020.25,347.4
2019-01-28 14:40,50.6304616666667,-96.9807716666667,12.1,18.5,317,990.25,-19.8,68,0.39,0.0,1020.37,347.4
2019-01-28 14:50,50.63046,-96.9807716666667,11.7,17.9,313,990.35,-19.8,69,0.40,0.0,1020.47,347.4
2019-01-28 15:00,50.6304616666667,-96.98077,7.9,10.7,310,990.61,-19.8,71,0.39,0.0,1020.74,12.6
2019-01-28 15:10,50.6304633333333,-96.9807683333333,8.5,14.2,307,990.65,-19.8,71,0.37,0.0,1020.77,12.6
2019-01-28 15:20,50.630465,-96.9807683333333,8.0,12.9,309,990.76,-19.7,70,0.36,0.0,1020.88,12.6
2019-01-28 15:30,50.6304633333333,-96.9807666666667,8.8,12.8,304,990.75,-19.6,70,0.35,0.0,1020.87,12.6
2019-01-28 15:40,50.6304583333333,-96.980755,7.6,10.6,304,990.81,-19.6,71,0.34,0.0,1020.93,12.6
2019-01-28 15:50,50.6304616666667,-96.980755,8.4,15.5,301,990.70,-19.5,71,0.34,0.0,1020.81,12.6
2019-01-28 16:00,50.6304616666667,-96.9807533333333,8.3,14.3,303,990.66,-19.3,70,0.34,0.0,1020.77,54.7
2019-01-28 16:10,50.630455,-96.9807566666667,9.7,16.3,316,990.61,-19.2,67,0.34,0.0,1020.72,54.7
2019-01-28 16:20,50.6304583333333,-96.98076,12.8,21.5,315,990.67,-19.3,64,0.34,0.0,1020.79,54.7
2019-01-28 16:30,50.6304616666667,-96.9807666666667,12.3,17.8,316,990.89,-19.4,62,0.37,0.0,1021.03,54.7
2019-01-28 16:40,50.630455,-96.980765,12.7,18.4,314,990.94,-19.5,59,0.37,0.0,1021.09,54.7
2019-01-28 16:50,50.630455,-96.9807666666667,13.0,20.7,319,991.06,-19.2,58,0.38,0.0,1021.19,54.7
2019-01-28 17:00,50.6304566666667,-96.980765,12.5,19.1,314,991.17,-19.2,57,0.37,0.0,1021.31,360.0
2019-01-28 17:10,50.6304566666667,-96.980765,12.0,16.6,311,991.20,-19.2,56,0.36,0.0,1021.33,360.0
2019-01-28 17:20,50.6304566666667,-96.980765,10.9,16.9,309,991.23,-19.4,56,0.35,0.0,1021.37,360.0
2019-01-28 17:30,50.6304583333333,-96.9807666666667,10.5,17.8,313,991.26,-19.1,55,0.34,0.0,1021.38,360.0
2019-01-28 17:40,50.6304583333333,-96.9807666666667,11.5,17.4,317,991.24,-19.1,56,0.34,0.0,1021.35,360.0
2019-01-28 17:50,50.6304583333333,-96.9807666666667,11.2,17.4,312,991.23,-19.0,55,0.34,0.0,1021.33,360.0
2019-01-28 18:00,50.6304583333333,-96.9807666666667,10.2,15.8,304,991.23,-19.0,55,0.34,0.0,1021.32,360.0
2019-01-28 18:10,50.6304583333333,-96.9807666666667,10.9,17.9,303,991.15,-19.0,55,0.34,0.0,1021.23,360.0
2019-01-28 18:20,50.6304583333333,-96.9807666666667,11.1,16.1,307,991.07,-18.9,55,0.34,0.0,1021.16,360.0
2019-01-28 18:30,50.6304583333333,-96.9807666666667,11.3,17.7,305,990.99,-18.8,54,0.35,0.0,1021.07,360.0
2019-01-28 18:40,50.6304583333333,-96.9807666666667,10.0,14.5,308,991.00,-18.7,54,0.37,0.0,1021.06,360.0
2019-01-28 18:50,50.6304583333333,-96.9807666666667,10.2,16.8,307,990.96,-18.5,54,0.39,0.0,1021.01,360.0
2019-01-28 19:00,50.6304583333333,-96.9807666666667,9.5,13.4,311,990.93,-18.4,54,0.39,0.0,1020.97,234.7
2019-01-28 19:10,50.6304583333333,-96.9807666666667,9.0,13.9,298,990.80,-18.2,54,0.42,0.0,1020.84,234.7
2019-01-28 19:20,50.6304583333333,-96.9807666666667,7.3,13.6,299,990.72,-18.0,53,0.44,0.0,1020.73,234.7
2019-01-28 19:30,50.6304583333333,-96.9807666666667,8.1,12.5,294,990.57,-17.9,53,0.45,0.0,1020.57,234.7
2019-01-28 19:40,50.6304583333333,-96.9807666666667,9.1,13.7,291,990.47,-18.0,53,0.46,0.0,1020.47,234.7
2019-01-28 19:50,50.6304583333333,-96.9807683333333,8.5,12.3,298,990.45,-17.9,53,0.46,0.0,1020.43,234.7
2019-01-28 20:00,50.6304566666667,-96.9807683333333,7.2,10.9,300,990.52,-17.6,53,0.47,0.0,1020.49,0.0
2019-01-28 20:10,50.6304566666667,-96.98077,9.1,14.7,295,990.46,-17.7,54,0.47,0.0,1020.44,0.0
2019-01-28 20:20,50.6304566666667,-96.98077,8.9,14.0,289,990.49,-18.0,54,0.48,0.0,1020.47,0.0
2019-01-28 20:30,50.6304566666667,-96.98077,8.4,14.3,290,990.53,-17.9,54,0.57,0.0,1020.50,0.0
2019-01-28 20:40,50.6304516666667,-96.9807633333333,9.2,14.9,293,990.41,-17.7,54,0.48,0.0,1020.36,0.0
2019-01-28 20:50,50.6304583333333,-96.980775,8.4,14.6,323,990.46,-17.8,56,0.47,0.0,1020.41,0.0
2019-01-28 21:00,50.6304566666667,-96.9807683333333,8.6,12.0,323,990.46,-18.2,58,0.45,0.0,1020.41,360.0
2019-01-28 21:10,50.6304383333333,-96.98076,7.9,11.8,319,990.46,-18.1,58,0.45,0.0,1020.40,360.0
2019-01-28 21:20,50.6304466666667,-96.9807633333333,6.6,12.3,308,990.43,-17.9,57,0.47,0.0,1020.36,360.0
2019-01-28 21:30,50.6304516666667,-96.9807733333333,6.9,11.5,315,990.44,-17.7,55,0.48,0.0,1020.35,360.0
2019-01-28 21:40,50.6304533333333,-96.9807616666667,9.7,13.4,332,990.41,-17.8,53,0.48,0.0,1020.33,360.0
2019-01-28 21:50,50.63045,-96.98076,8.6,13.5,326,990.39,-17.9,52,0.48,0.0,1020.30,360.0
2019-01-28 22:00,50.6304483333333,-96.9807633333333,8.9,12.9,325,990.37,-18.0,52,0.47,0.0,1020.28,360.0
2019-01-28 22:10,50.6304466666667,-96.980765,7.8,10.8,348,990.57,-18.1,54,0.43,0.0,1020.51,360.0
2019-01-28 22:20,50.6304466666667,-96.980765,9.6,12.1,18,990.53,-19.1,60,0.40,0.0,1020.53,360.0
2019-01-28 22:30,50.6304466666667,-96.9807666666667,9.5,12.2,16,990.63,-20.5,65,0.38,0.0,1020.70,360.0
2019-01-28 22:40,50.6304483333333,-96.9807683333333,7.9,9.7,12,990.72,-21.3,66,0.37,0.0,1020.85,360.0
2019-01-28 22:50,50.6304483333333,-96.98077,8.4,10.2,13,990.72,-22.0,67,0.36,0.0,1020.91,360.0
2019-01-28 23:00,50.63044,-96.98078,8.3,9.4,15,990.82,-22.7,69,0.36,0.0,1021.05,235.2
2019-01-28 23:10,50.6304466666667,-96.9807783333333,7.3,9.0,15,990.87,-23.2,70,0.35,0.0,1021.13,235.2
2019-01-28 23:20,50.630445,-96.9807766666667,6.5,7.0,16,990.90,-23.5,69,0.35,0.0,1021.16,235.2
2019-01-28 23:30,50.6304433333333,-96.9807766666667,6.4,7.8,18,990.93,-23.8,69,0.34,0.0,1021.22,235.2
2019-01-28 23:40,50.6304566666667,-96.9807266666667,5.9,6.7,3,990.98,-23.9,70,0.34,0.0,1021.28,235.2
